SM7GXQ Weather Reports


time (UTC)temp
C
wind
direction
speed
KPH
gust
KPH
rain 1hr
cm
rain 24hr
cm
rain mn
cm
humidity
%
barometer
mb
20240226080006 2 339 1.6 4.8 0.00 0.00 0.00 97 1007.3
20240226074508 1 292 4.8 8.0 0.00 0.00 0.00 97 1007.3
20240226073005 1 268 3.2 4.8 0.00 0.00 0.00 97 1007.3
20240226071504 1 260 1.6 4.8 0.00 0.00 0.00 97 1007.4
20240226070007 1 256 3.2 4.8 0.00 0.00 0.00 97 1007.0
20240226063005 1 27 3.2 4.8 0.00 0.00 0.00 97 1006.4
20240226044505 1 40 1.6 3.2 0.00 0.00 0.00 96 1005.5
20240226043005 1 40 1.6 4.8 0.00 0.00 0.00 96 1005.3
20240226040005 1 90 1.6 4.8 0.00 0.00 0.00 96 1005.3
20240226034507 1 100 4.8 4.8 0.00 0.00 0.00 96 1005.1
20240226033004 1 112 1.6 3.2 0.00 0.00 0.00 96 1005.1
20240226030004 1 116 1.6 3.2 0.00 0.00 0.00 95 1004.9
20240226024504 1 116 0.0 1.6 0.00 0.00 0.00 95 1004.9
20240226014504 2 116 1.6 3.2 0.00 0.03 0.00 94 1005.2
20240225230003 4 126 4.8 12.9 0.00 0.03 0.00 92 1005.5
20240225223003 4 150 9.7 19.3 0.00 0.08 0.03 92 1005.5
20240225211503 3 120 8.0 19.3 0.00 0.08 0.03 93 1005.4
20240225210004 3 108 8.0 14.5 0.00 0.08 0.03 94 1005.4
20240225204504 3 115 8.0 19.3 0.00 0.08 0.03 93 1005.4
20240225201503 3 113 8.0 12.9 0.00 0.08 0.03 93 1005.6
20240225200004 3 98 9.7 14.5 0.00 0.08 0.03 93 1006.0
20240225194503 3 114 9.7 19.3 0.00 0.08 0.03 93 1006.0
20240225193003 3 126 8.0 14.5 0.00 0.08 0.03 93 1006.1
20240225191503 3 113 8.0 14.5 0.00 0.08 0.03 93 1006.1
20240225184504 3 120 9.7 19.3 0.00 0.08 0.03 92 1006.3
20240225183004 3 115 8.0 14.5 0.00 0.08 0.03 92 1006.7
20240225180003 4 122 6.4 14.5 0.00 0.08 0.03 91 1006.7
20240225174503 3 123 3.2 11.3 0.00 0.08 0.03 91 1007.0
20240225173004 4 121 8.0 14.5 0.00 0.08 0.03 91 1007.0
20240225171505 4 132 8.0 12.9 0.00 0.08 0.03 91 1007.3
20240225163005 4 84 4.8 12.9 0.00 0.08 0.03 89 1006.8
20240225160004 5 110 4.8 14.5 0.00 0.08 0.03 87 1006.8
20240225153004 6 138 4.8 12.9 0.00 0.08 0.03 84 1006.8
20240225150003 6 102 1.6 11.3 0.00 0.08 0.03 81 1006.7
20240225141503 7 137 9.7 16.1 0.00 0.08 0.03 82 1006.6
20240225134504 7 122 8.0 24.1 0.00 0.08 0.03 81 1006.7
20240225121504 7 176 4.8 12.9 0.00 0.08 0.03 78 1007.3
20240225113003 6 185 6.4 16.1 0.00 0.08 0.03 81 1007.4
20240225111503 6 198 8.0 14.5 0.00 0.08 0.03 82 1007.4
20240225104503 6 178 9.7 14.5 0.00 0.08 0.03 84 1007.6
20240225103004 5 178 4.8 14.5 0.00 0.08 0.03 84 1007.5
20240225084504 5 187 6.4 20.9 0.00 0.08 0.03 84 1007.3